Meteo Giornale » Osservazioni meteo Italia » Monte Cimone

ore: 14:55 - Osservazioni Meteo Monte Cimone
Lat. 44° 12' N Lon. 10° 42' E Alt. 2165 metri s.l.m.

sereno Europe/Rome

15 °C

Sereno

Temp. 24 Ore

11 °C

15 °C

Sud/Sud-Ovest

31.5 Km/h

Dew point 11 °C

Umidità 76 %

Visibilità  0 Km

Il sole sorge alle ore 05:58

Il sole tramonta alle ore 20:49

Data e Ora Cielo e Fenomeni T °C DP °C Um. % Pres. hPa Vis. km Vento km/h
Oggi h: 14:55 sereno Sereno 15 11 76 1027 0 S/SO 31.5
Oggi h: 13:55 sereno Sereno 15 11 76 1027 0 S/SO 25.9
Oggi h: 13:34 sereno Sereno 15 10 72 1028 0 S/SO 29.6
Oggi h: 12:55 sereno Sereno 15 10 72 1027 0 S/SO 29.6
Oggi h: 11:55 sereno Sereno 15 10 72 1027 0 S/SO 22.2
Oggi h: 11:06 sereno Sereno 14 10 76 1027 0 S/SO 25.9
Oggi h: 10:55 sereno Sereno 14 10 76 1027 0 S/SO 27.8
Oggi h: 10:39 sereno Sereno 14 9 71 1027 0 S/SO 31.5
Oggi h: 08:55 sereno Sereno 11 9 87 1025 0 S 38.8
Oggi h: 08:06 sereno Sereno 12 9 81 1026 0 S/SO 29.6
Oggi h: 07:55 sereno Sereno 12 9 81 1026 0 S/SO 33.3
Oggi h: 06:55 sereno Sereno 12 9 81 1026 0 S/SO 24
Oggi h: 05:55 sereno Sereno 12 9 81 1026 0 O/SO 22.2
Oggi h: 05:23 sereno Sereno 12 9 81 1026 0 S/SO 31.5
Oggi h: 04:55 sereno Sereno 12 9 81 1026 0 S/SO 29.6
Oggi h: 03:55 sereno Sereno 13 9 76 1026 0 SO 29.6
Oggi h: 02:55 sereno Sereno 12 9 81 1027 0 SO 24
Oggi h: 02:38 sereno Sereno 13 9 76 1026 0 SO 31.5
Oggi h: 01:55 sereno Sereno 13 9 76 1026 0 SO 33.3
Oggi h: 00:55 sereno Sereno 13 10 81 1026 0 SO 37
Oggi h: 00:34 sereno Sereno 13 11 87 1026 0 SO 33.3
Oggi h: 00:24 sereno Sereno 13 11 87 1026 0 SO 38.8
Ieri h: 23:55 sereno Sereno 13 11 87 1025 0 SO 42.6
Ieri h: 22:55 sereno Sereno 13 11 87 1025 0 S/SO 42.6
Ieri h: 21:55 sereno Sereno 13 11 87 1025 0 S/SO 31.5
Ieri h: 21:38 sereno Sereno 13 12 93 1026 0 S/SO 27.8
Ieri h: 20:55 sereno Sereno 13 11 87 1025 0 S/SO 37
Ieri h: 20:16 sereno Sereno 13 11 87 1024 0 S/SO 42.6
Ieri h: 20:06 sereno Sereno 13 11 87 1025 0 S/SO 42.6
Ieri h: 19:55 sereno Sereno 13 12 93 1025 0 S/SO 35.2
Ieri h: 18:55 sereno Sereno 14 11 82 1025 0 SO 31.5
Ieri h: 17:55 sereno Sereno 14 11 82 1025 0 S/SO 24
Ieri h: 16:55 sereno Sereno 15 12 82 1024 0 S/SO 35.2